ABY147 OMSJ-OEJN

Flight info

Callsign ABY147
Flight time 2h 52m
Altitude 32000
Route ANVIX R401 GIDIS G783 RIGIL M628 PEKEM DCT MEDPO DCT ITRUX Y511 ASMIS T218 IMGUT M309 VEMEM
Aircraft A21N/M-SDE2E3FGHIRWXY/LB1

Departure

Time 2026-04-22 09:56
Airport Sharjah International Airport (OMSJ)

Arrival

Time 2026-04-22 12:48
Airport King Abdulaziz International Airport (OEJN)
Time Latitude Longitude Altitude Speed Heading
2026-04-22 08:49 25.32384 55.51901 118 ft 0 kts 212°
2026-04-22 08:57 25.32385 55.51902 118 ft 0 kts 212°
2026-04-22 08:57 25.32384 55.51901 118 ft 0 kts 212°
2026-04-22 09:44 25.32390 55.51905 118 ft 4 kts 212°
2026-04-22 09:44 25.32413 55.51921 114 ft 4 kts 212°
2026-04-22 09:45 25.32436 55.51937 118 ft 4 kts 212°
2026-04-22 09:45 25.32459 55.51953 116 ft 4 kts 212°
2026-04-22 09:45 25.32478 55.51966 118 ft 4 kts 220°
2026-04-22 09:45 25.32494 55.51988 118 ft 4 kts 257°
2026-04-22 09:46 25.32493 55.52015 114 ft 4 kts 295°
2026-04-22 09:46 25.32479 55.52041 115 ft 4 kts 304°
2026-04-22 09:46 25.32476 55.52047 118 ft 0 kts 302°
2026-04-22 09:47 25.32481 55.52037 114 ft 7 kts 302°
2026-04-22 09:48 25.32510 55.51987 116 ft 10 kts 302°
2026-04-22 09:48 25.32552 55.51913 114 ft 12 kts 302°
2026-04-22 09:48 25.32596 55.51837 115 ft 12 kts 302°
2026-04-22 09:48 25.32641 55.51759 116 ft 12 kts 302°
2026-04-22 09:49 25.32687 55.51678 118 ft 13 kts 302°
2026-04-22 09:49 25.32734 55.51597 118 ft 13 kts 302°
2026-04-22 09:49 25.32782 55.51514 114 ft 13 kts 302°
2026-04-22 09:49 25.32830 55.51429 117 ft 13 kts 302°
2026-04-22 09:50 25.32880 55.51344 115 ft 13 kts 302°
2026-04-22 09:50 25.32930 55.51257 115 ft 14 kts 302°
2026-04-22 09:50 25.32980 55.51169 114 ft 14 kts 302°
2026-04-22 09:50 25.33032 55.51079 115 ft 14 kts 303°
2026-04-22 09:51 25.33083 55.50989 118 ft 14 kts 302°
2026-04-22 09:51 25.33135 55.50898 115 ft 14 kts 302°
2026-04-22 09:51 25.33189 55.50805 117 ft 14 kts 302°
2026-04-22 09:51 25.33243 55.50710 116 ft 15 kts 302°
2026-04-22 09:52 25.33305 55.50604 118 ft 18 kts 302°
2026-04-22 09:52 25.33371 55.50488 118 ft 19 kts 303°
2026-04-22 09:52 25.33441 55.50367 115 ft 19 kts 302°
2026-04-22 09:52 25.33510 55.50247 116 ft 18 kts 303°
2026-04-22 09:53 25.33579 55.50128 116 ft 18 kts 302°
2026-04-22 09:53 25.33646 55.50010 117 ft 18 kts 303°
2026-04-22 09:53 25.33751 55.49989 115 ft 16 kts 21°
2026-04-22 09:53 25.33846 55.50052 115 ft 16 kts 33°
2026-04-22 09:54 25.33940 55.50119 116 ft 16 kts 33°
2026-04-22 09:54 25.33982 55.50218 116 ft 14 kts 97°
2026-04-22 09:54 25.33938 55.50305 120 ft 13 kts 122°
2026-04-22 09:54 25.33893 55.50386 117 ft 12 kts 122°
2026-04-22 09:55 25.33806 55.50537 120 ft 51 kts 122°
2026-04-22 09:55 25.33495 55.51079 116 ft 117 kts 122°
2026-04-22 09:55 25.32943 55.52039 131 ft 177 kts 122°
2026-04-22 09:55 25.32249 55.53247 544 ft 192 kts 123°
2026-04-22 09:56 25.31552 55.54454 1453 ft 178 kts 123°
2026-04-22 09:56 25.30877 55.55620 2166 ft 188 kts 123°
2026-04-22 09:56 25.30123 55.56922 2490 ft 209 kts 123°
2026-04-22 09:56 25.29302 55.58330 2857 ft 226 kts 123°
2026-04-22 09:57 25.28426 55.59815 3389 ft 236 kts 124°
2026-04-22 09:57 25.27515 55.61349 4102 ft 239 kts 124°
2026-04-22 09:57 25.26593 55.62892 4824 ft 242 kts 125°
2026-04-22 09:57 25.25660 55.64455 5487 ft 246 kts 125°
2026-04-22 09:58 25.24713 55.66039 6154 ft 249 kts 126°
2026-04-22 09:58 25.23761 55.67633 6652 ft 252 kts 126°
2026-04-22 09:58 25.22790 55.69256 6814 ft 253 kts 126°
2026-04-22 09:58 25.21718 55.70803 6817 ft 253 kts 140°
2026-04-22 09:59 25.20208 55.71781 6825 ft 262 kts 162°
2026-04-22 09:59 25.18396 55.72360 6812 ft 277 kts 168°
2026-04-22 09:59 25.16503 55.72865 6813 ft 281 kts 168°
2026-04-22 09:59 25.14595 55.73369 6810 ft 282 kts 168°
2026-04-22 10:00 25.12698 55.73903 6812 ft 282 kts 166°
2026-04-22 10:00 25.10807 55.74516 6976 ft 285 kts 165°
2026-04-22 10:00 25.08928 55.75148 7615 ft 286 kts 165°
2026-04-22 10:00 25.07018 55.75794 8295 ft 288 kts 165°
2026-04-22 10:01 25.05089 55.76448 8917 ft 292 kts 165°
2026-04-22 10:01 25.03139 55.77110 9503 ft 295 kts 165°
2026-04-22 10:01 25.01158 55.77783 10035 ft 303 kts 165°
2026-04-22 10:01 24.99079 55.78488 10281 ft 321 kts 165°
2026-04-22 10:02 24.96883 55.79232 10516 ft 338 kts 165°
2026-04-22 10:02 24.94587 55.80043 10742 ft 354 kts 161°
2026-04-22 10:02 24.92244 55.81073 10959 ft 369 kts 159°
2026-04-22 10:02 24.89835 55.82210 11147 ft 383 kts 158°
2026-04-22 10:03 24.87362 55.83389 11420 ft 392 kts 158°
2026-04-22 10:03 24.84919 55.84788 11818 ft 398 kts 147°
2026-04-22 10:03 24.82869 55.86855 12244 ft 404 kts 131°
2026-04-22 10:03 24.81129 55.89297 12703 ft 406 kts 129°
2026-04-22 10:04 24.79227 55.91545 13113 ft 407 kts 142°
2026-04-22 10:04 24.76760 55.93103 13609 ft 404 kts 162°
2026-04-22 10:04 24.74059 55.93719 14078 ft 403 kts 175°
2026-04-22 10:04 24.71254 55.93890 14539 ft 403 kts 181°
2026-04-22 10:05 24.68444 55.93841 14997 ft 404 kts 184°
2026-04-22 10:05 24.65621 55.93693 15448 ft 405 kts 186°
2026-04-22 10:05 24.62828 55.93256 15892 ft 406 kts 194°
2026-04-22 10:05 24.60132 55.92330 16328 ft 405 kts 205°
2026-04-22 10:06 24.57677 55.90878 16749 ft 405 kts 215°
2026-04-22 10:06 24.55408 55.89042 17134 ft 405 kts 219°
2026-04-22 10:06 24.53240 55.87060 17493 ft 406 kts 222°
2026-04-22 10:06 24.51117 55.84997 17849 ft 408 kts 223°
2026-04-22 10:07 24.49007 55.82901 18175 ft 409 kts 223°
2026-04-22 10:07 24.46893 55.80800 18479 ft 411 kts 223°
2026-04-22 10:07 24.44755 55.78696 18736 ft 413 kts 223°
2026-04-22 10:07 24.42590 55.76585 18943 ft 416 kts 223°
2026-04-22 10:08 24.40411 55.74478 19178 ft 418 kts 222°
2026-04-22 10:08 24.38219 55.72369 19418 ft 419 kts 222°
2026-04-22 10:08 24.36024 55.70263 19637 ft 421 kts 222°
2026-04-22 10:08 24.33832 55.68161 19827 ft 423 kts 222°
2026-04-22 10:09 24.31598 55.66022 20008 ft 425 kts 222°
2026-04-22 10:09 24.29352 55.63886 20224 ft 427 kts 220°
2026-04-22 10:09 24.26976 55.61973 20437 ft 429 kts 213°
2026-04-22 10:09 24.24321 55.60424 20647 ft 433 kts 205°
2026-04-22 10:10 24.21479 55.59269 20874 ft 435 kts 200°
2026-04-22 10:10 24.18574 55.58287 21062 ft 438 kts 198°
2026-04-22 10:10 24.15626 55.57394 21301 ft 440 kts 197°
2026-04-22 10:10 24.12682 55.56546 21515 ft 442 kts 196°
2026-04-22 10:11 24.09659 55.55686 21751 ft 444 kts 196°
2026-04-22 10:11 24.06664 55.54826 21997 ft 446 kts 197°
2026-04-22 10:11 24.03656 55.53950 22197 ft 448 kts 197°
2026-04-22 10:11 24.00680 55.53073 22424 ft 450 kts 197°
2026-04-22 10:12 23.97654 55.52177 22670 ft 452 kts 197°
2026-04-22 10:12 23.94603 55.51271 22903 ft 453 kts 197°
2026-04-22 10:12 23.91543 55.50361 23144 ft 455 kts 197°
2026-04-22 10:12 23.88474 55.49448 23365 ft 458 kts 197°
2026-04-22 10:13 23.85395 55.48533 23584 ft 460 kts 197°
2026-04-22 10:13 23.82320 55.47619 23834 ft 461 kts 197°
2026-04-22 10:13 23.79213 55.46695 24100 ft 463 kts 197°
2026-04-22 10:13 23.76091 55.45769 24348 ft 465 kts 197°
2026-04-22 10:14 23.72951 55.44838 24609 ft 467 kts 197°
2026-04-22 10:14 23.70865 55.44219 24790 ft 468 kts 197°
2026-04-22 10:14 23.66686 55.42980 25153 ft 471 kts 197°
2026-04-22 10:14 23.63517 55.42042 25424 ft 472 kts 197°
2026-04-22 10:15 23.60339 55.41101 25709 ft 474 kts 198°
2026-04-22 10:15 23.58213 55.40472 25972 ft 473 kts 198°
2026-04-22 10:15 23.55040 55.39534 26362 ft 472 kts 198°
2026-04-22 10:15 23.51867 55.38597 26728 ft 471 kts 198°
2026-04-22 10:16 23.48737 55.37671 27104 ft 470 kts 198°
2026-04-22 10:16 23.45544 55.36726 27485 ft 469 kts 198°
2026-04-22 10:16 23.42432 55.35806 27821 ft 469 kts 198°
2026-04-22 10:16 23.39284 55.34876 28135 ft 468 kts 199°
2026-04-22 10:17 23.36133 55.33948 28475 ft 468 kts 199°
2026-04-22 10:17 23.32993 55.33022 28811 ft 467 kts 199°
2026-04-22 10:17 23.29859 55.32098 29132 ft 466 kts 199°
2026-04-22 10:17 23.26719 55.31171 29436 ft 466 kts 199°
2026-04-22 10:18 23.23585 55.30246 29752 ft 466 kts 199°
2026-04-22 10:18 23.20497 55.29335 30063 ft 465 kts 199°
2026-04-22 10:18 23.17367 55.28413 30354 ft 465 kts 200°
2026-04-22 10:18 23.14232 55.27486 30653 ft 464 kts 201°
2026-04-22 10:19 23.11227 55.26316 30929 ft 459 kts 209°
2026-04-22 10:19 23.08425 55.24686 31238 ft 453 kts 218°
2026-04-22 10:19 23.05955 55.22621 31547 ft 445 kts 228°
2026-04-22 10:19 23.03876 55.20171 31772 ft 439 kts 237°
2026-04-22 10:20 23.01083 55.14427 31806 ft 426 kts 256°
2026-04-22 10:20 22.99674 55.08217 31802 ft 425 kts 261°
2026-04-22 10:21 22.98497 55.01928 31804 ft 425 kts 261°
2026-04-22 10:21 22.97313 54.95636 31806 ft 425 kts 261°
2026-04-22 10:22 22.96096 54.89392 31804 ft 425 kts 261°
2026-04-22 10:22 22.94854 54.83126 31803 ft 425 kts 261°
2026-04-22 10:23 22.93604 54.76847 31803 ft 425 kts 261°
2026-04-22 10:23 22.92354 54.70587 31804 ft 425 kts 261°
2026-04-22 10:24 22.91107 54.64345 31803 ft 425 kts 261°
2026-04-22 10:24 22.89853 54.58081 31813 ft 424 kts 260°
2026-04-22 10:25 22.88598 54.51820 31814 ft 424 kts 260°
2026-04-22 10:25 22.87343 54.45575 31813 ft 424 kts 260°
2026-04-22 10:26 22.86083 54.39330 31812 ft 424 kts 260°
2026-04-22 10:26 22.84830 54.33127 31814 ft 424 kts 260°
2026-04-22 10:27 22.83567 54.26868 31813 ft 424 kts 260°
2026-04-22 10:27 22.82309 54.20660 31814 ft 424 kts 260°
2026-04-22 10:28 22.81043 54.14418 31814 ft 424 kts 260°
2026-04-22 10:28 22.79770 54.08165 31813 ft 424 kts 260°
2026-04-22 10:29 22.78494 54.01919 31815 ft 424 kts 260°
2026-04-22 10:29 22.77239 53.95667 31813 ft 424 kts 261°
2026-04-22 10:30 22.76027 53.89434 31813 ft 422 kts 261°
2026-04-22 10:30 22.74828 53.83252 31814 ft 422 kts 261°
2026-04-22 10:31 22.73609 53.77009 31814 ft 422 kts 261°
2026-04-22 10:31 22.72390 53.70788 31814 ft 422 kts 261°
2026-04-22 10:32 22.71174 53.64601 31814 ft 422 kts 261°
2026-04-22 10:32 22.69948 53.58378 31815 ft 422 kts 261°
2026-04-22 10:33 22.68726 53.52192 31815 ft 422 kts 261°
2026-04-22 10:33 22.67494 53.45965 31813 ft 422 kts 260°
2026-04-22 10:34 22.66264 53.39757 31813 ft 422 kts 260°
2026-04-22 10:34 22.65030 53.33534 31822 ft 421 kts 260°
2026-04-22 10:35 22.63802 53.27363 31823 ft 421 kts 260°
2026-04-22 10:35 22.62563 53.21161 31813 ft 421 kts 260°
2026-04-22 10:36 22.61326 53.14973 31813 ft 420 kts 260°
2026-04-22 10:36 22.60085 53.08783 31822 ft 420 kts 260°
2026-04-22 10:37 22.58226 52.99519 31823 ft 419 kts 260°
2026-04-22 10:38 22.56985 52.93354 31823 ft 419 kts 260°
2026-04-22 10:38 22.55744 52.87225 31822 ft 419 kts 260°
2026-04-22 10:39 22.54495 52.81056 31823 ft 419 kts 260°
2026-04-22 10:39 22.53250 52.74903 31824 ft 418 kts 260°
2026-04-22 10:40 22.52006 52.68772 31823 ft 418 kts 260°
2026-04-22 10:40 22.50759 52.62637 31824 ft 419 kts 260°
2026-04-22 10:41 22.49502 52.56471 31823 ft 418 kts 260°
2026-04-22 10:41 22.48247 52.50330 31822 ft 418 kts 260°
2026-04-22 10:42 22.46993 52.44210 31829 ft 418 kts 260°
2026-04-22 10:42 22.45736 52.38075 31832 ft 418 kts 260°
2026-04-22 10:43 22.44475 52.31939 31832 ft 418 kts 260°
2026-04-22 10:43 22.43210 52.25798 31832 ft 418 kts 260°
2026-04-22 10:44 22.41941 52.19663 31832 ft 418 kts 260°
2026-04-22 10:44 22.40916 52.13495 31831 ft 416 kts 268°
2026-04-22 10:45 22.41065 52.07257 31832 ft 414 kts 275°
2026-04-22 10:45 22.41571 52.01090 31831 ft 414 kts 276°
2026-04-22 10:46 22.42141 51.94898 31831 ft 414 kts 276°
2026-04-22 10:46 22.42697 51.88705 31846 ft 413 kts 276°
2026-04-22 10:47 22.43234 51.82522 31848 ft 413 kts 276°
2026-04-22 10:47 22.43761 51.76335 31852 ft 413 kts 276°
2026-04-22 10:48 22.44284 51.70150 31846 ft 413 kts 276°
2026-04-22 10:48 22.44806 51.63962 31855 ft 413 kts 276°
2026-04-22 10:49 22.45327 51.57769 31846 ft 413 kts 276°
2026-04-22 10:49 22.45843 51.51615 31822 ft 413 kts 276°
2026-04-22 10:50 22.46361 51.45407 31823 ft 413 kts 276°
2026-04-22 10:50 22.46871 51.39263 31823 ft 412 kts 276°
2026-04-22 10:51 22.47381 51.33085 31822 ft 412 kts 276°
2026-04-22 10:51 22.47892 51.26897 31836 ft 412 kts 276°
2026-04-22 10:52 22.48395 51.20756 31842 ft 412 kts 275°
2026-04-22 10:52 22.48899 51.14568 31839 ft 411 kts 275°
2026-04-22 10:53 22.49397 51.08401 31849 ft 411 kts 275°
2026-04-22 10:53 22.49895 51.02241 31838 ft 411 kts 275°
2026-04-22 10:54 22.50387 50.96118 31840 ft 411 kts 275°
2026-04-22 10:54 22.50879 50.89951 31849 ft 411 kts 275°
2026-04-22 10:55 22.51369 50.83803 31848 ft 410 kts 275°
2026-04-22 10:55 22.51857 50.77643 31837 ft 410 kts 275°
2026-04-22 10:56 22.52343 50.71488 31845 ft 410 kts 275°
2026-04-22 10:56 22.52822 50.65370 31836 ft 410 kts 275°
2026-04-22 10:57 22.53300 50.59223 31852 ft 410 kts 275°
2026-04-22 10:57 22.53778 50.53070 31837 ft 410 kts 275°
2026-04-22 10:58 22.54253 50.46929 31848 ft 409 kts 275°
2026-04-22 10:58 22.54726 50.40783 31842 ft 409 kts 275°
2026-04-22 10:59 22.55115 50.35678 31850 ft 409 kts 275°
2026-04-22 10:59 22.55657 50.28537 31839 ft 409 kts 275°
2026-04-22 11:00 22.56045 50.23426 31841 ft 409 kts 275°
2026-04-22 11:00 22.56511 50.17279 31837 ft 410 kts 275°
2026-04-22 11:01 22.56973 50.11129 31836 ft 410 kts 275°
2026-04-22 11:01 22.57429 50.04988 31849 ft 409 kts 275°
2026-04-22 11:02 22.57883 49.98870 31841 ft 409 kts 275°
2026-04-22 11:02 22.58338 49.92721 31836 ft 409 kts 275°
2026-04-22 11:03 22.58785 49.86614 31832 ft 409 kts 275°
2026-04-22 11:03 22.59236 49.80448 31860 ft 409 kts 274°
2026-04-22 11:04 22.59682 49.74330 31878 ft 408 kts 274°
2026-04-22 11:04 22.60122 49.68229 31878 ft 408 kts 274°
2026-04-22 11:05 22.60564 49.62106 31884 ft 408 kts 274°
2026-04-22 11:05 22.61006 49.55981 31889 ft 408 kts 274°
2026-04-22 11:06 22.61439 49.49844 31892 ft 409 kts 274°
2026-04-22 11:06 22.61861 49.43744 31885 ft 408 kts 274°
2026-04-22 11:07 22.62280 49.37609 31878 ft 408 kts 274°
2026-04-22 11:07 22.62719 49.31486 31879 ft 407 kts 274°
2026-04-22 11:08 22.63148 49.25405 31889 ft 407 kts 274°
2026-04-22 11:08 22.63576 49.19272 31887 ft 407 kts 274°
2026-04-22 11:09 22.64000 49.13146 31888 ft 407 kts 274°
2026-04-22 11:09 22.64416 49.07036 31887 ft 407 kts 274°
2026-04-22 11:10 22.64833 49.00914 31886 ft 407 kts 274°
2026-04-22 11:10 22.65247 48.94827 31889 ft 407 kts 274°
2026-04-22 11:11 22.65660 48.88699 31887 ft 407 kts 274°
2026-04-22 11:11 22.66070 48.82573 31889 ft 407 kts 274°
2026-04-22 11:12 22.66476 48.76451 31888 ft 406 kts 274°
2026-04-22 11:12 22.66877 48.70384 31895 ft 406 kts 274°
2026-04-22 11:13 22.67280 48.64269 31897 ft 406 kts 274°
2026-04-22 11:13 22.67679 48.58163 31897 ft 407 kts 274°
2026-04-22 11:14 22.68075 48.52087 31897 ft 407 kts 274°
2026-04-22 11:14 22.68471 48.45973 31898 ft 407 kts 274°
2026-04-22 11:15 22.68864 48.39868 31896 ft 406 kts 274°
2026-04-22 11:15 22.69251 48.33746 31897 ft 406 kts 274°
2026-04-22 11:16 22.69641 48.27645 31896 ft 407 kts 274°
2026-04-22 11:16 22.70030 48.21519 31897 ft 407 kts 274°
2026-04-22 11:17 22.70413 48.15396 31898 ft 407 kts 274°
2026-04-22 11:17 22.70791 48.09295 31896 ft 407 kts 274°
2026-04-22 11:18 22.71170 48.03165 31888 ft 407 kts 274°
2026-04-22 11:18 22.71542 47.97089 31888 ft 407 kts 273°
2026-04-22 11:19 22.71920 47.90972 31887 ft 406 kts 273°
2026-04-22 11:19 22.72295 47.84863 31887 ft 406 kts 273°
2026-04-22 11:20 22.72661 47.78787 31889 ft 406 kts 273°
2026-04-22 11:20 22.73023 47.72705 31888 ft 406 kts 273°
2026-04-22 11:21 22.73386 47.66603 31888 ft 406 kts 273°
2026-04-22 11:21 22.73744 47.60512 31890 ft 406 kts 273°
2026-04-22 11:22 22.74108 47.54390 31894 ft 406 kts 273°
2026-04-22 11:22 22.74469 47.48296 31906 ft 405 kts 273°
2026-04-22 11:23 22.74821 47.42217 31907 ft 406 kts 273°
2026-04-22 11:23 22.75171 47.36099 31908 ft 406 kts 273°
2026-04-22 11:24 22.75519 47.30017 31906 ft 406 kts 273°
2026-04-22 11:24 22.75863 47.23919 31906 ft 405 kts 273°
2026-04-22 11:25 22.76216 47.17826 31906 ft 405 kts 274°
2026-04-22 11:25 22.76665 47.11741 31907 ft 405 kts 274°
2026-04-22 11:26 22.77165 47.05653 31898 ft 405 kts 275°
2026-04-22 11:26 22.77652 46.99604 31897 ft 404 kts 274°
2026-04-22 11:27 22.78131 46.93528 31897 ft 405 kts 274°
2026-04-22 11:27 22.78607 46.87441 31897 ft 405 kts 274°
2026-04-22 11:28 22.79084 46.81362 31896 ft 404 kts 274°
2026-04-22 11:28 22.79553 46.75276 31898 ft 405 kts 274°
2026-04-22 11:29 22.80020 46.69204 31897 ft 403 kts 274°
2026-04-22 11:29 22.80486 46.63133 31887 ft 405 kts 274°
2026-04-22 11:30 22.80947 46.57103 31888 ft 404 kts 274°
2026-04-22 11:30 22.81408 46.51038 31888 ft 404 kts 274°
2026-04-22 11:31 22.81870 46.44969 31887 ft 404 kts 274°
2026-04-22 11:31 22.82327 46.38903 31889 ft 404 kts 274°
2026-04-22 11:32 22.82779 46.32838 31879 ft 403 kts 274°
2026-04-22 11:32 22.83225 46.26785 31878 ft 403 kts 274°
2026-04-22 11:33 22.83673 46.20712 31878 ft 404 kts 274°
2026-04-22 11:33 22.84113 46.14652 31877 ft 404 kts 274°
2026-04-22 11:34 22.84562 46.08567 31878 ft 404 kts 274°
2026-04-22 11:34 22.85005 46.02513 31878 ft 404 kts 274°
2026-04-22 11:35 22.85438 45.96439 31878 ft 403 kts 274°
2026-04-22 11:35 22.85865 45.90389 31878 ft 402 kts 274°
2026-04-22 11:36 22.86296 45.84338 31878 ft 402 kts 274°
2026-04-22 11:36 22.86730 45.78283 31879 ft 402 kts 274°
2026-04-22 11:37 22.87156 45.72266 31877 ft 402 kts 274°
2026-04-22 11:37 22.87575 45.66205 31878 ft 402 kts 274°
2026-04-22 11:38 22.87997 45.60148 31878 ft 402 kts 274°
2026-04-22 11:38 22.88619 45.51103 31887 ft 402 kts 274°
2026-04-22 11:39 22.89039 45.45055 31887 ft 402 kts 274°
2026-04-22 11:39 22.89458 45.39000 31885 ft 402 kts 274°
2026-04-22 11:40 22.89869 45.32956 31890 ft 402 kts 274°
2026-04-22 11:40 22.90278 45.26939 31887 ft 401 kts 274°
2026-04-22 11:41 22.90684 45.20905 31887 ft 401 kts 274°
2026-04-22 11:41 22.91086 45.14863 31887 ft 401 kts 274°
2026-04-22 11:42 22.91488 45.08809 31888 ft 401 kts 274°
2026-04-22 11:42 22.91881 45.02802 31887 ft 401 kts 274°
2026-04-22 11:43 22.92211 44.97747 31889 ft 401 kts 274°
2026-04-22 11:43 22.92605 44.91729 31889 ft 401 kts 274°
2026-04-22 11:44 22.92998 44.85697 31887 ft 400 kts 274°
2026-04-22 11:44 22.93385 44.79700 31891 ft 400 kts 274°
2026-04-22 11:45 22.93773 44.73671 31896 ft 400 kts 274°
2026-04-22 11:45 22.94113 44.67646 31895 ft 400 kts 270°
2026-04-22 11:46 22.93974 44.61618 31896 ft 400 kts 268°
2026-04-22 11:46 22.93722 44.55582 31897 ft 400 kts 268°
2026-04-22 11:47 22.93450 44.49562 31897 ft 399 kts 268°
2026-04-22 11:47 22.93176 44.43550 31897 ft 399 kts 268°
2026-04-22 11:48 22.92906 44.37534 31897 ft 399 kts 268°
2026-04-22 11:48 22.92638 44.31546 31898 ft 399 kts 268°
2026-04-22 11:49 22.92366 44.25516 31898 ft 399 kts 268°
2026-04-22 11:49 22.92093 44.19500 31896 ft 399 kts 268°
2026-04-22 11:50 22.91819 44.13514 31897 ft 399 kts 268°
2026-04-22 11:50 22.91539 44.07485 31895 ft 399 kts 268°
2026-04-22 11:51 22.91260 44.01465 31898 ft 399 kts 268°
2026-04-22 11:51 22.90977 43.95449 31895 ft 398 kts 268°
2026-04-22 11:52 22.90691 43.89454 31898 ft 397 kts 268°
2026-04-22 11:52 22.90405 43.83472 31895 ft 397 kts 268°
2026-04-22 11:53 22.90115 43.77485 31895 ft 397 kts 268°
2026-04-22 11:53 22.89827 43.71529 31890 ft 397 kts 268°
2026-04-22 11:54 22.89535 43.65542 31888 ft 398 kts 268°
2026-04-22 11:54 22.89239 43.59539 31887 ft 397 kts 268°
2026-04-22 11:55 22.88941 43.53561 31887 ft 397 kts 268°
2026-04-22 11:55 22.88641 43.47558 31888 ft 398 kts 268°
2026-04-22 11:56 22.88341 43.41597 31888 ft 398 kts 268°
2026-04-22 11:56 22.88035 43.35569 31888 ft 398 kts 268°
2026-04-22 11:57 22.87731 43.29617 31891 ft 398 kts 268°
2026-04-22 11:57 22.87423 43.23634 31887 ft 398 kts 268°
2026-04-22 11:58 22.87111 43.17638 31886 ft 397 kts 268°
2026-04-22 11:58 22.86798 43.11662 31888 ft 397 kts 268°
2026-04-22 11:59 22.86484 43.05709 31909 ft 397 kts 268°
2026-04-22 11:59 22.86168 42.99734 31916 ft 397 kts 268°
2026-04-22 12:00 22.85850 42.93786 31915 ft 396 kts 268°
2026-04-22 12:00 22.85528 42.87808 31916 ft 396 kts 268°
2026-04-22 12:01 22.85204 42.81834 31915 ft 397 kts 268°
2026-04-22 12:01 22.84878 42.75841 31918 ft 396 kts 268°
2026-04-22 12:02 22.84551 42.69909 31920 ft 396 kts 268°
2026-04-22 12:02 22.84220 42.63952 31926 ft 396 kts 268°
2026-04-22 12:03 22.83889 42.57984 31936 ft 396 kts 268°
2026-04-22 12:03 22.83559 42.52064 31938 ft 396 kts 268°
2026-04-22 12:04 22.83223 42.46111 31933 ft 396 kts 268°
2026-04-22 12:04 22.82884 42.40160 31939 ft 396 kts 268°
2026-04-22 12:05 22.82541 42.34179 31929 ft 396 kts 268°
2026-04-22 12:05 22.82200 42.28248 31931 ft 395 kts 268°
2026-04-22 12:06 22.81856 42.22286 31947 ft 395 kts 267°
2026-04-22 12:06 22.81512 42.16376 31945 ft 395 kts 267°
2026-04-22 12:07 22.81161 42.10410 31934 ft 395 kts 267°
2026-04-22 12:07 22.80808 42.04448 31943 ft 396 kts 267°
2026-04-22 12:08 22.80456 41.98521 31944 ft 396 kts 267°
2026-04-22 12:08 22.80100 41.92559 31944 ft 396 kts 267°
2026-04-22 12:09 22.79679 41.86613 31945 ft 396 kts 266°
2026-04-22 12:09 22.79113 41.80672 31954 ft 396 kts 265°
2026-04-22 12:10 22.78524 41.74769 31954 ft 396 kts 265°
2026-04-22 12:10 22.77942 41.68828 31953 ft 396 kts 265°
2026-04-22 12:11 22.77369 41.62894 31954 ft 396 kts 265°
2026-04-22 12:11 22.76797 41.56968 31982 ft 396 kts 265°
2026-04-22 12:12 22.76218 41.51026 31986 ft 395 kts 265°
2026-04-22 12:12 22.75646 41.45137 31990 ft 395 kts 265°
2026-04-22 12:13 22.75067 41.39205 31986 ft 395 kts 265°
2026-04-22 12:13 22.74443 41.33282 31991 ft 396 kts 262°
2026-04-22 12:14 22.72934 41.27524 31988 ft 399 kts 253°
2026-04-22 12:14 22.70957 41.21925 31989 ft 400 kts 252°
2026-04-22 12:15 22.68880 41.16329 31990 ft 400 kts 251°
2026-04-22 12:15 22.66797 41.10713 31991 ft 401 kts 251°
2026-04-22 12:16 22.64736 41.05121 31999 ft 400 kts 251°
2026-04-22 12:16 22.62676 40.99518 31999 ft 400 kts 251°
2026-04-22 12:17 22.60618 40.93922 31999 ft 400 kts 251°
2026-04-22 12:17 22.58556 40.88322 31993 ft 400 kts 251°
2026-04-22 12:18 22.56502 40.82755 31990 ft 400 kts 251°
2026-04-22 12:18 22.54432 40.77156 31991 ft 401 kts 251°
2026-04-22 12:19 22.52356 40.71547 31992 ft 401 kts 251°
2026-04-22 12:19 22.50279 40.65941 31993 ft 401 kts 251°
2026-04-22 12:20 22.48199 40.60329 31999 ft 402 kts 251°
2026-04-22 12:20 22.46116 40.54720 31999 ft 402 kts 251°
2026-04-22 12:21 22.44029 40.49108 31976 ft 402 kts 251°
2026-04-22 12:21 22.41954 40.43534 31930 ft 403 kts 251°
2026-04-22 12:22 22.39848 40.37883 31646 ft 407 kts 251°
2026-04-22 12:22 22.38788 40.35040 31396 ft 409 kts 251°
2026-04-22 12:22 22.37719 40.32174 31140 ft 410 kts 251°
2026-04-22 12:23 22.36663 40.29346 30895 ft 411 kts 251°
2026-04-22 12:23 22.35590 40.26475 30642 ft 412 kts 251°
2026-04-22 12:23 22.34516 40.23602 30393 ft 413 kts 251°
2026-04-22 12:23 22.33433 40.20708 30139 ft 415 kts 251°
2026-04-22 12:24 22.32352 40.17820 29888 ft 415 kts 251°
2026-04-22 12:24 22.31266 40.14922 29641 ft 416 kts 251°
2026-04-22 12:24 22.30176 40.12011 29392 ft 418 kts 251°
2026-04-22 12:24 22.29082 40.09095 29135 ft 419 kts 251°
2026-04-22 12:25 22.27999 40.06210 28874 ft 418 kts 251°
2026-04-22 12:25 22.26885 40.03305 28620 ft 417 kts 249°
2026-04-22 12:25 22.25485 40.00546 28373 ft 420 kts 242°
2026-04-22 12:25 22.23900 39.97889 28126 ft 421 kts 241°
2026-04-22 12:26 22.22829 39.96137 27957 ft 421 kts 240°
2026-04-22 12:26 22.20690 39.92655 27627 ft 420 kts 240°
2026-04-22 12:26 22.19076 39.90028 27388 ft 419 kts 240°
2026-04-22 12:26 22.17987 39.88250 27207 ft 419 kts 240°
2026-04-22 12:27 22.15853 39.84768 26886 ft 419 kts 240°
2026-04-22 12:27 22.14792 39.83035 26427 ft 415 kts 240°
2026-04-22 12:27 22.13208 39.80451 25288 ft 411 kts 240°
2026-04-22 12:27 22.11621 39.77857 24196 ft 412 kts 239°
2026-04-22 12:28 22.10061 39.75310 23475 ft 407 kts 239°
2026-04-22 12:28 22.08517 39.72793 22699 ft 399 kts 239°
2026-04-22 12:28 22.06980 39.70286 21902 ft 402 kts 238°
2026-04-22 12:28 22.05443 39.67784 21082 ft 399 kts 238°
2026-04-22 12:29 22.03907 39.65286 20254 ft 400 kts 238°
2026-04-22 12:29 22.02372 39.62788 19403 ft 398 kts 237°
2026-04-22 12:29 22.00840 39.60291 18537 ft 399 kts 237°
2026-04-22 12:29 21.99312 39.57806 17699 ft 397 kts 237°
2026-04-22 12:30 21.96287 39.52881 15986 ft 395 kts 236°
2026-04-22 12:30 21.94781 39.50404 15279 ft 394 kts 238°
2026-04-22 12:30 21.93466 39.47812 14420 ft 392 kts 243°
2026-04-22 12:31 21.92294 39.45217 13425 ft 379 kts 243°
2026-04-22 12:31 21.91164 39.42658 12585 ft 376 kts 243°
2026-04-22 12:31 21.90044 39.40131 11758 ft 373 kts 243°
2026-04-22 12:31 21.88941 39.37643 10947 ft 372 kts 243°
2026-04-22 12:32 21.87829 39.35146 10303 ft 365 kts 243°
2026-04-22 12:32 21.85753 39.30481 10088 ft 323 kts 243°
2026-04-22 12:32 21.84819 39.28382 9972 ft 305 kts 243°
2026-04-22 12:33 21.83904 39.26391 9845 ft 288 kts 239°
2026-04-22 12:33 21.82733 39.24722 9777 ft 271 kts 222°
2026-04-22 12:33 21.81213 39.23635 9728 ft 258 kts 204°
2026-04-22 12:33 21.79456 39.23152 9291 ft 266 kts 184°
2026-04-22 12:34 21.77614 39.23381 8806 ft 269 kts 166°
2026-04-22 12:34 21.75836 39.24025 8369 ft 269 kts 162°
2026-04-22 12:34 21.74088 39.24736 7939 ft 267 kts 162°
2026-04-22 12:34 21.72364 39.25441 7493 ft 265 kts 162°
2026-04-22 12:35 21.70639 39.26137 7061 ft 264 kts 162°
2026-04-22 12:35 21.68918 39.26825 6626 ft 263 kts 162°
2026-04-22 12:35 21.67207 39.27505 6202 ft 262 kts 162°
2026-04-22 12:35 21.65496 39.28182 5772 ft 261 kts 162°
2026-04-22 12:36 21.63786 39.28855 5340 ft 260 kts 163°
2026-04-22 12:36 21.62104 39.29515 4940 ft 262 kts 162°
2026-04-22 12:36 21.60341 39.30206 4784 ft 275 kts 163°
2026-04-22 12:36 21.58521 39.30917 4773 ft 278 kts 162°
2026-04-22 12:37 21.56695 39.31634 4778 ft 279 kts 162°
2026-04-22 12:37 21.54878 39.32349 4787 ft 278 kts 162°
2026-04-22 12:37 21.53056 39.33072 4793 ft 278 kts 162°
2026-04-22 12:37 21.51243 39.33789 4783 ft 278 kts 162°
2026-04-22 12:38 21.49421 39.34507 4780 ft 278 kts 162°
2026-04-22 12:38 21.47602 39.35219 4785 ft 279 kts 162°
2026-04-22 12:38 21.45805 39.35923 4794 ft 279 kts 162°
2026-04-22 12:38 21.43983 39.36637 4796 ft 278 kts 162°
2026-04-22 12:39 21.42163 39.37348 4792 ft 278 kts 162°
2026-04-22 12:39 21.38522 39.38769 4803 ft 277 kts 165°
2026-04-22 12:39 21.36639 39.39079 4801 ft 272 kts 187°
2026-04-22 12:40 21.34881 39.38458 4816 ft 266 kts 216°
2026-04-22 12:40 21.33649 39.37014 4826 ft 264 kts 242°
2026-04-22 12:40 21.32970 39.35183 4808 ft 265 kts 257°
2026-04-22 12:40 21.32975 39.33236 4802 ft 267 kts 286°
2026-04-22 12:41 21.33970 39.31546 4820 ft 273 kts 313°
2026-04-22 12:41 21.35513 39.30335 4807 ft 277 kts 330°
2026-04-22 12:41 21.37304 39.29539 4832 ft 280 kts 338°
2026-04-22 12:41 21.39133 39.28882 4835 ft 281 kts 339°
2026-04-22 12:42 21.40991 39.28193 4840 ft 281 kts 338°
2026-04-22 12:42 21.42825 39.27461 4847 ft 282 kts 337°
2026-04-22 12:42 21.44656 39.26728 4765 ft 280 kts 337°
2026-04-22 12:42 21.46462 39.26019 4498 ft 268 kts 337°
2026-04-22 12:43 21.48133 39.25366 4125 ft 242 kts 337°
2026-04-22 12:43 21.49644 39.24769 3742 ft 222 kts 336°
2026-04-22 12:43 21.51051 39.24213 3370 ft 208 kts 336°
2026-04-22 12:43 21.52354 39.23702 3032 ft 195 kts 336°
2026-04-22 12:44 21.53588 39.23213 2758 ft 182 kts 336°
2026-04-22 12:44 21.54716 39.22768 2542 ft 164 kts 336°
2026-04-22 12:44 21.55753 39.22358 2332 ft 156 kts 336°
2026-04-22 12:44 21.56771 39.21955 2126 ft 156 kts 336°
2026-04-22 12:45 21.57784 39.21555 1916 ft 155 kts 336°
2026-04-22 12:45 21.58792 39.21158 1713 ft 153 kts 335°
2026-04-22 12:45 21.59794 39.20762 1510 ft 152 kts 336°
2026-04-22 12:45 21.60787 39.20369 1304 ft 151 kts 336°
2026-04-22 12:46 21.61774 39.19980 1103 ft 150 kts 336°
2026-04-22 12:46 21.62753 39.19593 904 ft 149 kts 336°
2026-04-22 12:46 21.63716 39.19213 713 ft 149 kts 336°
2026-04-22 12:46 21.64695 39.18826 510 ft 149 kts 336°
2026-04-22 12:47 21.65670 39.18443 358 ft 150 kts 336°
2026-04-22 12:47 21.66646 39.18052 169 ft 150 kts 336°
2026-04-22 12:47 21.67611 39.17677 51 ft 140 kts 338°
2026-04-22 12:47 21.68475 39.17357 31 ft 123 kts 335°
2026-04-22 12:48 21.69171 39.17057 30 ft 87 kts 340°
2026-04-22 12:48 21.69383 39.16972 28 ft 7 kts 328°
2026-04-22 12:48 21.69415 39.16930 27 ft 8 kts 297°
2026-04-22 12:48 21.69415 39.16872 27 ft 8 kts 252°
2026-04-22 12:49 21.69392 39.16809 27 ft 10 kts 248°
2026-04-22 12:49 21.69349 39.16767 27 ft 0 kts 199°
2026-04-22 12:50 21.66702 39.17544 38 ft 0 kts 338°